Regional Weather Roundup
Issued by NWS Charleston, SC

Current Version | Previous Version | Text Only | Print | Product List | Glossary Off
Versions: 1 2 3 4 5 6 7 8 9 10 11 12 13 14 15 16 17 18 19 20 21 22 23 24 25 26 27 28 29 30 31 32 33 34 35 36 37 38 39 40 41 42 43 44 45 46 47 48 49 50
000 ASUS42 KCHS 270326 RWRCHS REGIONAL WEATHER ROUNDUP NATIONAL WEATHER SERVICE CHARLESTON SC 1000 PM EST THU FEB 26 2015 NOTE: "FAIR" INDICATES FEW OR NO CLOUDS BELOW 12,000 FEET WITH NO SIGNIFICANT WEATHER AND/OR OBSTRUCTIONS TO VISIBILITY. NOT ALL STATIONS ARE QUALITY CONTROLLED BY THE NATIONAL WEATHER SERVICE. USE DATA WITH CAUTION...ESPECIALLY DEWPOINT OBSERVATIONS. SCZ027-030-031-034>040-042>050-270400- ...SOUTHEAST SOUTH CAROLINA... CITY SKY/WX TMP DP RH WIND PRES REMARKS N CHARLESTON CLOUDY 42 35 76 N5 30.15R WATERFRONT PRK N/A 43 N/A N/A NW6 N/A MOUNT PLEASANT LGT RAIN 41 37 87 N5 30.15R PINOPOLIS N/A 43 36 75 N8 30.06R MONCKS CORNER CLOUDY 43 36 75 CALM 30.15R SUMMERVILLE NOT AVBL BEAUFORT MCAS CLOUDY 42 37 82 NE5 30.15R BEAUFORT ARPT FAIR 43 37 81 CALM 30.15R HILTON HEAD IS CLOUDY 43 37 81 N5 30.16R WALTERBORO CLOUDY 39 37 93 CALM 30.15S ALLENDALE CLOUDY 45 39 81 E5 30.15R ...SOUTHERN MIDLANDS AND PEE DEE... CITY SKY/WX TMP DP RH WIND PRES REMARKS GEORGETOWN NOT AVBL KINGSTREE NOT AVBL ORANGEBURG CLOUDY 39 35 86 CALM 30.14R BARNWELL CLOUDY 45 39 81 SE3 30.16R AIKEN CLOUDY 41 37 87 CALM 30.16R MANNING FAIR N/A N/A N/A CALM 30.16R COLUMBIA PTCLDY 39 35 86 E3 30.15R SUMTER PTCLDY 33 32 95 NE1 30.14R FLORENCE CLOUDY 38 32 79 N3 30.16R MYRTLE BEACH CLOUDY 39 34 81 N10 30.16R WCI 32 N MYRTLE BEACH CLOUDY 38 33 82 N3 30.14R $$ GAZ063-065-086>088-099>101-113>116-118-119-134>141-150-270400- ...SOUTHEAST GEORGIA... CITY SKY/WX TMP DP RH WIND PRES REMARKS SAVANNAH ARPT CLOUDY 45 37 73 N3 30.14R HUNTER AAF NOT AVBL FORT STEWART NOT AVBL STATESBORO CLOUDY 44 40 87 CALM 30.14R SYLVANIA CLOUDY 43 43 99 E3 30.14S CLAXTON FAIR 41 41 100 CALM 30.14R ...CSRA...CENTRAL AND FAR SOUTHEAST GEORGIA... CITY SKY/WX TMP DP RH WIND PRES REMARKS THOMSON CLOUDY 42 40 91 NW3 30.19R AUGUSTA-BUSH CLOUDY 43 37 79 CALM 30.14R AUGUSTA-DANIEL CLOUDY 46 35 65 CALM 30.13R SWAINSBORO CLOUDY 45 45 100 CALM 30.15R VIDALIA CLOUDY 45 41 87 CALM 30.14R EASTMAN CLOUDY 46 45 99 CALM 30.16R HAZLEHURST CLOUDY 45 45 100 CALM 30.14R ALMA CLOUDY 42 40 92 CALM 30.13R WAYCROSS CLOUDY 46 44 93 CALM 30.14R JESUP FAIR 45 43 93 CALM 30.15R BAXLEY FAIR 43 41 93 CALM 30.14R BRUNSWICK CLOUDY 46 39 76 NE3 30.15R SAINT SIMONS CLOUDY 47 39 74 NW5 30.13R $$ SCZ027-028-034-036>038-045-046-048>050-GAZ119-141-270400- ...LAKE AND SUPPLEMENTAL COASTAL OBSERVATIONS... STATION/POSITION TIME TEMP WIND PRES WAVE SWELL AIR SEA DIR/SP/G HT/PER HT/PER/DIR (UTC) (F) (DEG/KT/KT) (MB) (FT/S) (FT/S/D) UPR LAKE MARION NOT AVBL WINYAH BAY 0200 40 340/ 5 1019.0R LAKE MURRAY 0200 40 80/ 4/ 7 1019.0R ACE BASIN NERRS NOT AVBL FORT PULASKI 0300 45 49 20/ 8/ 10 1021.1R SAPELO ISLAND 0300 47 340/ 6 1020.0R $$ ANZ835-935-AMZ111-154-330-350-352-354-370-450-454-472-270400- ...C-MAN AND BUOY OBSERVATIONS... STATION/POSITION TIME TEMP WIND PRES WAVE SWELL AIR SEA DIR/SP/G HT/PER HT/PER/DIR (UTC) (F) (DEG/KT/KT) (MB) (FT/S) (FT/S/D) BUOY 41004 0250 45 66 360/ 12/ 19 1019.6R 5/ 9 3/ 9 BUOY 41008 0250 48 52 40/ 14/ 16 1019.9R 2/10 2/130/10 FOLLY BEACH CMAN 0300 42 340/ 5/ 6 1021.3R CAPERS NEARSHORE NOT AVBL FRIPP NEARSHORE 0200 44 30/ 14/ 16 1019.5R STATION/POSITION TIME TEMP WIND PRES WAVE SWELL AIR SEA DIR/SP/G HT/PER HT/PER/DIR (UTC) (F) (DEG/KT/KT) (MB) (FT/S) (FT/S/D) 5E ST. MARYS GA 0221 54 N/A 3/11 2/110/11 FRYING PAN BUOY 0250 42 59 360/ 16/ 19 1020.1R 7/10 5/180/10 BUOY 41025 NOT AVBL CAPE LOOKOUT NC 0300 36 360/ 14/ 17 1019.0R BUOY 41002 0250 62 70 300/ 12/ 16 1016.0R 10/10 10/210/10 BUOY 41010 0220 65 74 10/ 12/ 16 1015.9R ST AUGUSTINE FL 0300 51 10/ 17/ 20 1019.8R $$

USA.gov is the U.S. government's official web portal to all federal, state and local government web resources and services.